Location: Acequia del Cap
(41.7000°N, 0.6167°E)
Time: 00:46:35
(UTC+00:00)

Cosmos 2297 Rocket - Pass Details

Date: 07 August 2020
Orbit: 838 x 845 km, 71.0° (Epoch: 22 September)

Event Time Altitude Azimuth Distance (km) Brightness Sun altitude
Exits shadow 02:27:55 34° 275° (W) 1,347 3.0 -23.1°
Maximum altitude 02:29:04 38° 302° (WNW) 1,264 3.0 -22.9°
Drops below altitude 10° 02:34:19 10° 10° (N) 2,464 5.4 -22.3°
Sets 02:36:57 0° 18° (NNE) 3,404 6.5 -22.0°
